TimeEST,TemperatureF,Dew PointF,Humidity,Sea Level PressureIn,VisibilityMPH,Wind Direction,Wind SpeedMPH,Gust SpeedMPH,PrecipitationIn,Events,Conditions,WindDirDegrees,DateUTC
12:15 AM,30.2,26.6,86,30.39,10.0,Calm,Calm,-,N/A,,Clear,0,2012-12-14 05:15:00
12:35 AM,28.4,23.0,80,30.38,10.0,Calm,Calm,-,N/A,,Clear,0,2012-12-14 05:35:00
12:55 AM,28.4,23.0,80,30.38,10.0,Calm,Calm,-,N/A,,Clear,0,2012-12-14 05:55:00
1:15 AM,28.4,23.0,80,30.38,10.0,Calm,Calm,-,N/A,,Clear,0,2012-12-14 06:15:00
1:35 AM,28.4,23.0,80,30.38,10.0,Calm,Calm,-,N/A,,Clear,0,2012-12-14 06:35:00
1:55 AM,28.4,23.0,80,30.39,10.0,Calm,Calm,-,N/A,,Clear,0,2012-12-14 06:55:00
2:15 AM,26.6,23.0,86,30.38,10.0,Calm,Calm,-,N/A,,Clear,0,2012-12-14 07:15:00
2:35 AM,28.4,23.0,80,30.38,10.0,Calm,Calm,-,N/A,,Clear,0,2012-12-14 07:35:00
2:55 AM,26.6,23.0,86,30.37,10.0,Calm,Calm,-,N/A,,Clear,0,2012-12-14 07:55:00
3:15 AM,26.6,23.0,86,30.37,10.0,Calm,Calm,-,N/A,,Clear,0,2012-12-14 08:15:00
3:35 AM,26.6,23.0,86,30.37,10.0,Calm,Calm,-,N/A,,Clear,0,2012-12-14 08:35:00
3:55 AM,26.6,21.2,80,30.38,10.0,Calm,Calm,-,N/A,,Clear,0,2012-12-14 08:55:00
4:15 AM,26.6,21.2,80,30.37,10.0,Calm,Calm,-,N/A,,Clear,0,2012-12-14 09:15:00
4:35 AM,26.6,23.0,86,30.37,10.0,Calm,Calm,-,N/A,,Clear,0,2012-12-14 09:35:00
4:55 AM,26.6,23.0,86,30.37,10.0,Calm,Calm,-,N/A,,Clear,0,2012-12-14 09:55:00
5:15 AM,26.6,23.0,86,30.37,10.0,Calm,Calm,-,N/A,,Clear,0,2012-12-14 10:15:00
5:35 AM,26.6,23.0,86,30.37,10.0,Calm,Calm,-,N/A,,Clear,0,2012-12-14 10:35:00
5:55 AM,26.6,21.2,80,30.39,10.0,Calm,Calm,-,N/A,,Clear,0,2012-12-14 10:55:00
6:15 AM,26.6,21.2,80,30.40,10.0,Calm,Calm,-,N/A,,Clear,0,2012-12-14 11:15:00
6:35 AM,26.6,23.0,86,30.41,10.0,Calm,Calm,-,N/A,,Clear,0,2012-12-14 11:35:00
6:55 AM,24.8,21.2,86,30.40,10.0,Calm,Calm,-,N/A,,Clear,0,2012-12-14 11:55:00
7:55 AM,24.8,21.2,86,30.38,10.0,Calm,Calm,-,N/A,,Clear,0,2012-12-14 12:55:00
8:55 AM,32.0,24.8,75,30.41,10.0,Calm,Calm,-,N/A,,Clear,0,2012-12-14 13:55:00
9:55 AM,41.0,26.6,57,30.42,10.0,Calm,Calm,-,N/A,,Clear,0,2012-12-14 14:55:00
10:55 AM,46.4,28.4,50,30.42,10.0,Calm,Calm,-,N/A,,Clear,0,2012-12-14 15:55:00
11:55 AM,51.8,24.8,35,30.38,10.0,Calm,Calm,-,N/A,,Clear,0,2012-12-14 16:55:00
12:55 PM,55.4,24.8,31,30.34,10.0,Calm,Calm,-,N/A,,Clear,0,2012-12-14 17:55:00
1:55 PM,57.2,24.8,29,30.32,10.0,Calm,Calm,-,N/A,,Clear,0,2012-12-14 18:55:00
2:55 PM,57.2,24.8,29,30.28,10.0,Calm,Calm,-,N/A,,Clear,0,2012-12-14 19:55:00
3:50 PM,57.2,23.0,27,30.28,10.0,Calm,Calm,-,N/A,,Clear,0,2012-12-14 20:50:00
4:55 PM,55.4,23.0,29,30.28,10.0,Calm,Calm,-,N/A,,Clear,0,2012-12-14 21:55:00
5:55 PM,44.6,26.6,49,30.27,10.0,Calm,Calm,-,N/A,,Clear,0,2012-12-14 22:55:00
7:55 PM,37.4,24.8,60,30.28,10.0,Calm,Calm,-,N/A,,Clear,0,2012-12-15 00:55:00
8:15 PM,33.8,26.6,75,30.27,10.0,Calm,Calm,-,N/A,,Clear,0,2012-12-15 01:15:00
8:35 PM,35.6,26.6,70,30.27,10.0,Calm,Calm,-,N/A,,Clear,0,2012-12-15 01:35:00
8:55 PM,33.8,26.6,75,30.28,10.0,Calm,Calm,-,N/A,,Clear,0,2012-12-15 01:55:00
9:15 PM,33.8,26.6,75,30.28,10.0,Calm,Calm,-,N/A,,Clear,0,2012-12-15 02:15:00
9:35 PM,33.8,26.6,75,30.28,10.0,Calm,Calm,-,N/A,,Clear,0,2012-12-15 02:35:00
9:55 PM,32.0,26.6,80,30.28,10.0,Calm,Calm,-,N/A,,Clear,0,2012-12-15 02:55:00
10:15 PM,33.8,26.6,75,30.28,10.0,Calm,Calm,-,N/A,,Clear,0,2012-12-15 03:15:00
10:35 PM,32.0,28.4,87,30.30,10.0,Calm,Calm,-,N/A,,Clear,0,2012-12-15 03:35:00
10:55 PM,32.0,28.4,87,30.28,10.0,Calm,Calm,-,N/A,,Clear,0,2012-12-15 03:55:00
11:15 PM,32.0,28.4,87,30.28,10.0,Calm,Calm,-,N/A,,Clear,0,2012-12-15 04:15:00
11:35 PM,33.8,28.4,81,30.29,10.0,Calm,Calm,-,N/A,,Clear,0,2012-12-15 04:35:00
11:55 PM,33.8,28.4,81,30.29,10.0,Calm,Calm,-,N/A,,Clear,0,2012-12-15 04:55:00